CW5834 Weather Reports


Display with metric or nautical units.
time (UTC)temp
F
wind
direction
speed
MPH
gust
MPH
rain 1hr
in
rain 24hr
in
rain mn
in
humidity
%
barometer
mb
20260504222523 76 225 4.0 7.0 0.00 0.00 0.00 42 1013.3
20260504221516 76 225 3.0 8.0 0.00 0.00 0.00 45 1013.3
20260504220516 76 270 3.0 8.0 0.00 0.00 0.00 43 1013.2
20260504215516 76 248 2.0 7.0 0.00 0.00 0.00 41 1013.3
20260504214516 76 203 5.0 10.0 0.00 0.00 0.00 41 1013.3
20260504213516 76 225 2.0 5.0 0.00 0.00 0.00 45 1013.4
20260504212516 76 203 3.0 7.0 0.00 0.00 0.00 43 1013.4
20260504211556 76 225 3.0 7.0 0.00 0.00 0.00 43 1013.4
20260504210516 76 225 2.0 5.0 0.00 0.00 0.00 44 1013.5
20260504205516 76 203 4.0 11.0 0.00 0.00 0.00 45 1013.7
20260504204516 76 203 5.0 10.0 0.00 0.00 0.00 44 1013.8
20260504203517 76 248 4.0 13.0 0.00 0.00 0.00 43 1014.0
20260504202516 76 225 5.0 11.0 0.00 0.00 0.00 41 1014.0
20260504201536 76 225 4.0 9.0 0.00 0.00 0.00 42 1014.2
20260504200516 76 225 4.0 16.0 0.00 0.00 0.00 43 1014.3
20260504195515 76 180 4.0 12.0 0.00 0.00 0.00 47 1014.4
20260504194516 75 225 4.0 8.0 0.00 0.00 0.00 47 1014.5
20260504193536 75 293 2.0 5.0 0.00 0.00 0.00 45 1014.5
20260504192536 75 225 3.0 6.0 0.00 0.00 0.00 49 1014.8
20260504191536 74 203 4.0 8.0 0.00 0.00 0.00 48 1015.1
20260504190515 74 225 3.0 7.0 0.00 0.00 0.00 45 1015.5
20260504185516 74 203 3.0 9.0 0.00 0.00 0.00 47 1015.5
20260504184516 73 270 3.0 9.0 0.00 0.00 0.00 49 1015.5
20260504183516 73 270 3.0 10.0 0.00 0.00 0.00 50 1015.8
20260504182515 73 225 4.0 10.0 0.00 0.00 0.00 47 1016.0
20260504181515 73 225 4.0 9.0 0.00 0.00 0.00 50 1015.9
20260504180516 72 203 2.0 4.0 0.00 0.00 0.00 52 1016.2
20260504175515 72 270 3.0 10.0 0.00 0.00 0.00 49 1016.2
20260504174515 71 203 3.0 7.0 0.00 0.00 0.00 53 1016.3
20260504173516 71 248 2.0 5.0 0.00 0.00 0.00 54 1016.4
20260504172515 70 203 3.0 7.0 0.00 0.00 0.00 50 1016.6
20260504171515 70 225 4.0 10.0 0.00 0.00 0.00 50 1016.7
20260504170515 69 203 3.0 6.0 0.00 0.00 0.00 50 1017.0
20260504150517 63 203 4.0 9.0 0.00 0.00 0.00 57 1018.4
20260504140537 57 270 2.0 4.0 0.00 0.00 0.00 62 1018.6
20260504130517 52 203 1.0 3.0 0.00 0.00 0.00 77 1018.3
20260504110517 40 0.0 2.0 0.00 0.00 0.00 90 1017.3
20260504100516 41 0 1.0 1.0 0.00 0.00 0.00 91 1017.6
20260504081536 41 0.0 2.0 0.00 0.00 0.00 88 1017.4
20260504080516 41 0.0 2.0 0.00 0.00 0.00 88 1017.3
20260504050516 45 0.0 2.0 0.00 0.00 0.00 78 1018.0
20260504045516 45 0.0 0.0 0.00 0.00 0.00 78 1017.8
20260504044516 46 0.0 0.0 0.00 0.00 0.00 76 1017.8
20260504043516 46 0.0 2.0 0.00 0.00 0.00 76 1017.9
20260504042536 46 0.0 2.0 0.00 0.00 0.00 76 1018.0
20260504041536 46 0.0 0.0 0.00 0.00 0.00 74 1017.9
20260504040516 46 0.0 1.0 0.00 0.00 0.00 74 1017.8
20260504035537 47 0.0 0.0 0.00 0.00 0.00 72 1017.6
20260504034517 48 0.0 2.0 0.00 0.00 0.00 70 1017.6
20260504033517 48 0.0 1.0 0.00 0.00 0.00 69 1017.5
20260504032517 49 0.0 2.0 0.00 0.00 0.00 69 1017.8
20260504031517 49 0.0 1.0 0.00 0.00 0.00 67 1017.8
20260504030516 50 0.0 0.0 0.00 0.00 0.00 66 1017.3
20260504025517 49 0.0 1.0 0.00 0.00 0.00 66 1017.4
20260504024516 49 0.0 0.0 0.00 0.00 0.00 68 1017.5
20260504023536 50 0.0 0.0 0.00 0.00 0.00 65 1017.5
20260504022517 51 0.0 2.0 0.00 0.00 0.00 63 1017.4
20260504021517 51 0 1.0 1.0 0.00 0.00 0.00 65 1017.2
20260504020516 51 0 1.0 1.0 0.00 0.00 0.00 64 1017.2
20260504015516 51 0.0 2.0 0.00 0.00 0.00 64 1017.2
20260504014517 51 338 1.0 1.0 0.00 0.00 0.00 61 1017.3
20260504013537 51 0 1.0 1.0 0.00 0.00 0.00 62 1017.1
20260504012516 51 0 1.0 1.0 0.00 0.00 0.00 62 1017.1
20260504011517 52 0.0 2.0 0.00 0.00 0.00 57 1017.0
20260504010517 53 0.0 1.0 0.00 0.00 0.00 58 1016.9
20260504005517 53 0.0 2.0 0.00 0.00 0.00 57 1017.2
20260504004536 54 0 1.0 1.0 0.00 0.00 0.00 55 1017.0
20260504003516 54 0.0 1.0 0.00 0.00 0.00 55 1016.6
20260504002516 55 0 1.0 1.0 0.00 0.00 0.00 53 1016.7
20260504001536 56 23 1.0 1.0 0.00 0.00 0.00 53 1016.5
20260504000523 57 315 1.0 2.0 0.00 0.00 0.00 50 1016.2
20260503235516 59 0.0 2.0 0.00 0.00 0.00 46 1016.3
20260503234556 60 0.0 2.0 0.00 0.00 0.00 44 1016.5
20260503233516 61 248 1.0 4.0 0.00 0.00 0.00 41 1016.7
20260503232516 62 293 1.0 2.0 0.00 0.00 0.00 40 1016.7
20260503231516 63 225 1.0 3.0 0.00 0.00 0.00 39 1016.9
20260503230516 63 270 1.0 4.0 0.00 0.00 0.00 39 1016.9
20260503225516 64 203 2.0 4.0 0.00 0.00 0.00 40 1017.2
20260503224516 64 225 2.0 4.0 0.00 0.00 0.00 39 1017.1
20260503223536 64 203 4.0 9.0 0.00 0.00 0.00 39 1017.2